When you browse on this site, cookies collect data to enhance your experience and personalize the content and advertising you see.
Visit our Privacy Policy to learn more. By continuing to use the site, you agree to this use of cookies and data.
  • In Romania
  • List of Countries
  • For 7 days
  • Water Temperature
  • Satellite Maps
  • Weather Map
  • Weather Widgets
  • user-avatar
    Login

    Hourly Weather Yablonovyy Ovrag

    Today, 22 March, Friday

    Time Temperature Precipitation Wind Pressure Humidity
    00:00 -1°C° 0.1 mm 2 mps 759 mmHg 97%
    01:00 -1°C° 0 mm 2 mps 759 mmHg 97%
    02:00 -1°C° 0 mm 2 mps 758 mmHg 97%
    03:00 +1°C° 0 mm 2 mps 758 mmHg 97%
    04:00 +1°C° 0 mm 2 mps 758 mmHg 97%
    05:00 +1°C° 0 mm 2 mps 758 mmHg 97%
    06:00 +1°C° 0 mm 2 mps 758 mmHg 97%
    07:00 +1°C° 0 mm 2 mps 758 mmHg 98%
    08:00 +1°C° 0 mm 2 mps 758 mmHg 99%
    09:00 +1°C° 0 mm 2 mps 758 mmHg 100%
    10:00 +1°C° 0 mm 2 mps 758 mmHg 99%
    11:00 +1°C° 0 mm 2 mps 757 mmHg 99%
    12:00 +1°C° 0 mm 2 mps 757 mmHg 99%
    13:00 +1°C° 0.1 mm 2 mps 757 mmHg 99%
    14:00 +1°C° 0.1 mm 2 mps 757 mmHg 100%
    15:00 +1°C° 0.1 mm 2 mps 756 mmHg 100%
    16:00 +1°C° 0.2 mm 2 mps 756 mmHg 99%
    17:00 +1°C° 0.2 mm 2 mps 756 mmHg 98%
    18:00 +1°C° 0.2 mm 2 mps 755 mmHg 98%
    19:00 -1°C° 0.3 mm 2 mps 755 mmHg 98%
    20:00 -1°C° 0.3 mm 2 mps 755 mmHg 97%
    21:00 -1°C° 0.3 mm 2 mps 755 mmHg 97%
    22:00 -1°C° 0.1 mm 2 mps 755 mmHg 97%
    23:00 -1°C° 0.1 mm 2 mps 755 mmHg 97%

    Tomorrow, 23 March, Saturday

    Time Temperature Precipitation Wind Pressure Humidity
    00:00 -1°C° 0.1 mm 2 mps 755 mmHg 97%
    01:00 +1°C° 0.2 mm 1 mps 755 mmHg 97%
    02:00 +1°C° 0.2 mm 1 mps 755 mmHg 97%
    03:00 +1°C° 0.2 mm 1 mps 755 mmHg 97%
    04:00 +1°C° 0.1 mm 1 mps 755 mmHg 97%
    05:00 0°C° 0.1 mm 1 mps 755 mmHg 97%
    06:00 -2°C° 0.1 mm 2 mps 755 mmHg 97%
    07:00 -1°C° 0 mm 2 mps 756 mmHg 97%
    08:00 -1°C° 0 mm 2 mps 756 mmHg 97%
    09:00 -1°C° 0 mm 3 mps 757 mmHg 97%
    10:00 -1°C° 0 mm 2 mps 757 mmHg 98%
    11:00 -1°C° 0 mm 2 mps 757 mmHg 98%
    12:00 +2°C° 0 mm 1 mps 758 mmHg 99%
    13:00 +2°C° 0 mm 1 mps 758 mmHg 98%
    14:00 +2°C° 0 mm 1 mps 758 mmHg 98%
    15:00 +2°C° 0 mm 1 mps 758 mmHg 97%
    16:00 +1°C° 0 mm 1 mps 758 mmHg 94%
    17:00 0°C° 0 mm 1 mps 759 mmHg 91%
    18:00 -1°C° 0 mm 1 mps 759 mmHg 88%
    19:00 -1°C° 0 mm 1 mps 759 mmHg 89%
    20:00 -1°C° 0 mm 1 mps 759 mmHg 90%
    21:00 -2°C° 0 mm 1 mps 760 mmHg 91%
    22:00 -4°C° 0 mm 2 mps 760 mmHg 91%
    23:00 -4°C° 0 mm 2 mps 760 mmHg 92%

    Day after tomorrow, 24 March, Sunday

    Time Temperature Precipitation Wind Pressure Humidity
    00:00 -4°C° 0 mm 2 mps 760 mmHg 92%
    01:00 -4°C° 0 mm 2 mps 760 mmHg 93%
    02:00 -3°C° 0 mm 2 mps 760 mmHg 93%
    03:00 -3°C° 0 mm 2 mps 760 mmHg 93%
    04:00 -3°C° 0.1 mm 2 mps 759 mmHg 94%
    05:00 -2°C° 0.1 mm 2 mps 759 mmHg 94%
    06:00 -2°C° 0.1 mm 3 mps 759 mmHg 94%
    07:00 -2°C° 0.1 mm 3 mps 759 mmHg 94%
    08:00 -1°C° 0.1 mm 3 mps 759 mmHg 93%
    09:00 -1°C° 0.1 mm 3 mps 759 mmHg 93%
    10:00 0°C° 0 mm 3 mps 758 mmHg 95%
    11:00 0°C° 0 mm 3 mps 758 mmHg 97%
    12:00 0°C° 0 mm 3 mps 758 mmHg 99%
    13:00 0°C° 0 mm 3 mps 758 mmHg 99%
    14:00 -1°C° 0 mm 4 mps 757 mmHg 99%
    15:00 -1°C° 0 mm 4 mps 757 mmHg 98%
    16:00 -1°C° 0 mm 4 mps 757 mmHg 97%
    17:00 -1°C° 0 mm 4 mps 757 mmHg 96%
    18:00 0°C° 0 mm 3 mps 757 mmHg 94%
    19:00 -1°C° 0 mm 3 mps 757 mmHg 95%
    20:00 -1°C° 0 mm 3 mps 757 mmHg 95%
    21:00 -1°C° 0 mm 3 mps 757 mmHg 96%
    22:00 -2°C° 0 mm 3 mps 757 mmHg 96%
    23:00 -2°C° 0 mm 2 mps 756 mmHg 96%

    25 March, Monday

    Time Temperature Precipitation Wind Pressure Humidity
    00:00 -2°C° 0 mm 2 mps 756 mmHg 96%
    01:00 -3°C° 0 mm 2 mps 755 mmHg 96%
    02:00 -3°C° 0 mm 2 mps 755 mmHg 96%
    03:00 -3°C° 0 mm 2 mps 755 mmHg 95%
    04:00 -3°C° 0 mm 2 mps 755 mmHg 95%
    05:00 -4°C° 0 mm 2 mps 754 mmHg 95%
    06:00 -4°C° 0 mm 2 mps 754 mmHg 95%
    07:00 -3°C° 0 mm 2 mps 754 mmHg 95%
    08:00 -3°C° 0 mm 2 mps 753 mmHg 94%
    09:00 -2°C° 0 mm 2 mps 753 mmHg 93%
    10:00 -2°C° 0 mm 2 mps 753 mmHg 94%
    11:00 -1°C° 0 mm 2 mps 752 mmHg 95%
    12:00 -1°C° 0 mm 2 mps 752 mmHg 96%
    13:00 -1°C° 0 mm 2 mps 752 mmHg 95%
    14:00 0°C° 0 mm 3 mps 751 mmHg 94%
    15:00 0°C° 0 mm 3 mps 751 mmHg 93%
    16:00 -1°C° 0 mm 3 mps 751 mmHg 93%
    17:00 -1°C° 0 mm 3 mps 751 mmHg 93%
    18:00 -1°C° 0 mm 2 mps 752 mmHg 93%
    19:00 -2°C° 0 mm 3 mps 752 mmHg 94%
    20:00 -2°C° 0 mm 3 mps 752 mmHg 94%
    21:00 -2°C° 0 mm 3 mps 752 mmHg 95%
    22:00 -2°C° 0.1 mm 3 mps 752 mmHg 95%
    23:00 -1°C° 0.1 mm 3 mps 753 mmHg 95%

    26 March, Tuesday

    Time Temperature Precipitation Wind Pressure Humidity
    00:00 -1°C° 0.1 mm 3 mps 753 mmHg 96%
    01:00 -2°C° 0 mm 3 mps 753 mmHg 96%
    02:00 -2°C° 0 mm 3 mps 753 mmHg 95%
    03:00 -2°C° 0 mm 2 mps 753 mmHg 95%
    04:00 -3°C° 0 mm 2 mps 754 mmHg 94%
    05:00 -3°C° 0 mm 2 mps 754 mmHg 93%
    06:00 -4°C° 0 mm 2 mps 754 mmHg 92%
    07:00 -3°C° 0 mm 2 mps 755 mmHg 91%
    08:00 -2°C° 0 mm 2 mps 756 mmHg 90%
    09:00 -1°C° 0 mm 2 mps 756 mmHg 89%
    10:00 -1°C° 0 mm 2 mps 756 mmHg 90%
    11:00 +1°C° 0 mm 2 mps 757 mmHg 91%
    12:00 +2°C° 0 mm 2 mps 757 mmHg 92%
    13:00 +2°C° 0 mm 2 mps 758 mmHg 90%
    14:00 +2°C° 0 mm 2 mps 758 mmHg 88%
    15:00 +2°C° 0 mm 2 mps 758 mmHg 87%
    16:00 +1°C° 0 mm 2 mps 758 mmHg 87%
    17:00 -1°C° 0 mm 2 mps 758 mmHg 88%
    18:00 -2°C° 0 mm 2 mps 759 mmHg 89%
    19:00 -2°C° 0 mm 2 mps 759 mmHg 88%
    20:00 -3°C° 0 mm 2 mps 759 mmHg 87%
    21:00 -4°C° 0 mm 3 mps 759 mmHg 86%
    22:00 -4°C° 0 mm 3 mps 759 mmHg 86%
    23:00 -4°C° 0 mm 3 mps 759 mmHg 85%

    27 March, Wednesday

    Time Temperature Precipitation Wind Pressure Humidity
    00:00 -5°C° 0 mm 3 mps 759 mmHg 84%
    01:00 -5°C° 0 mm 3 mps 759 mmHg 84%
    02:00 -5°C° 0 mm 3 mps 759 mmHg 84%
    03:00 -5°C° 0 mm 3 mps 759 mmHg 84%
    04:00 -5°C° 0 mm 3 mps 759 mmHg 83%
    05:00 -5°C° 0 mm 3 mps 759 mmHg 83%
    06:00 -4°C° 0 mm 2 mps 759 mmHg 82%
    07:00 -3°C° 0 mm 2 mps 759 mmHg 81%
    08:00 -2°C° 0 mm 2 mps 759 mmHg 80%
    09:00 -1°C° 0 mm 2 mps 759 mmHg 78%
    10:00 -1°C° 0 mm 2 mps 758 mmHg 78%
    11:00 +1°C° 0 mm 2 mps 758 mmHg 78%
    12:00 +1°C° 0 mm 3 mps 758 mmHg 78%
    13:00 +1°C° 0 mm 3 mps 757 mmHg 76%
    14:00 +1°C° 0 mm 3 mps 757 mmHg 75%
    15:00 +1°C° 0 mm 3 mps 757 mmHg 74%
    16:00 0°C° 0 mm 3 mps 757 mmHg 76%
    17:00 -1°C° 0 mm 3 mps 757 mmHg 78%
    18:00 -2°C° 0 mm 3 mps 757 mmHg 80%
    19:00 -2°C° 0 mm 3 mps 756 mmHg 80%
    20:00 -4°C° 0 mm 3 mps 756 mmHg 81%
    21:00 -4°C° 0 mm 3 mps 756 mmHg 82%
    22:00 -4°C° 0 mm 4 mps 755 mmHg 81%
    23:00 -4°C° 0 mm 4 mps 755 mmHg 80%
    Show more